Year,Month,Day,Hour,Minute,Value (Times are PST for barometer in hPa)
2019,05,16,00,00,991.23
2019,05,16,00,01,991.30
2019,05,16,00,02,991.30
2019,05,16,00,03,991.33
2019,05,16,00,04,991.26
2019,05,16,00,05,991.30
2019,05,16,00,06,991.30
2019,05,16,00,07,991.23
2019,05,16,00,08,991.26
2019,05,16,00,09,991.26
2019,05,16,00,10,991.23
2019,05,16,00,11,991.20
2019,05,16,00,12,991.23
2019,05,16,00,13,991.20
2019,05,16,00,14,991.16
2019,05,16,00,15,991.20
2019,05,16,00,16,991.23
2019,05,16,00,17,991.16
2019,05,16,00,18,991.20
2019,05,16,00,19,991.16
2019,05,16,00,20,991.16
2019,05,16,00,21,991.20
2019,05,16,00,22,991.13
2019,05,16,00,23,991.16
2019,05,16,00,24,991.20
2019,05,16,00,25,991.16
2019,05,16,00,26,991.16
2019,05,16,00,27,991.13
2019,05,16,00,28,991.09
2019,05,16,00,29,991.13
2019,05,16,00,30,991.09
2019,05,16,00,31,991.09
2019,05,16,00,32,991.06
2019,05,16,00,33,991.09
2019,05,16,00,34,991.03
2019,05,16,00,35,991.06
2019,05,16,00,36,991.03
2019,05,16,00,37,991.03
2019,05,16,00,38,991.03
2019,05,16,00,39,991.06
2019,05,16,00,40,991.06
2019,05,16,00,41,991.03
2019,05,16,00,42,990.99
2019,05,16,00,43,990.96
2019,05,16,00,44,990.99
2019,05,16,00,45,990.96
2019,05,16,00,46,990.99
2019,05,16,00,47,990.99
2019,05,16,00,48,990.96
2019,05,16,00,49,990.96
2019,05,16,00,50,990.96
2019,05,16,00,51,990.99
2019,05,16,00,52,990.96
2019,05,16,00,53,990.96
2019,05,16,00,54,990.93
2019,05,16,00,55,990.93
2019,05,16,00,56,990.93
2019,05,16,00,57,990.93
2019,05,16,00,58,990.89
2019,05,16,00,59,990.89
2019,05,16,01,00,990.89
2019,05,16,01,01,990.86
2019,05,16,01,02,990.82
2019,05,16,01,03,990.79
2019,05,16,01,04,990.82
2019,05,16,01,05,990.76
2019,05,16,01,06,990.72
2019,05,16,01,07,990.76
2019,05,16,01,08,990.72
2019,05,16,01,09,990.69
2019,05,16,01,10,990.69
2019,05,16,01,11,990.69
2019,05,16,01,12,990.72
2019,05,16,01,13,990.69
2019,05,16,01,14,990.69
2019,05,16,01,15,990.65
2019,05,16,01,16,990.65
2019,05,16,01,17,990.69
2019,05,16,01,18,990.69
2019,05,16,01,19,990.62
2019,05,16,01,20,990.62
2019,05,16,01,21,990.62
2019,05,16,01,22,990.59
2019,05,16,01,23,990.62
2019,05,16,01,24,990.59
2019,05,16,01,25,990.59
2019,05,16,01,26,990.59
2019,05,16,01,27,990.59
2019,05,16,01,28,990.59
2019,05,16,01,29,990.62
2019,05,16,01,30,990.59
2019,05,16,01,31,990.62
2019,05,16,01,32,990.59
2019,05,16,01,33,990.59
2019,05,16,01,34,990.62
2019,05,16,01,35,990.69
2019,05,16,01,36,990.65
2019,05,16,01,37,990.65
2019,05,16,01,38,990.65
2019,05,16,01,39,990.62
2019,05,16,01,40,990.62
2019,05,16,01,41,990.62
2019,05,16,01,42,990.62
2019,05,16,01,43,990.59
2019,05,16,01,44,990.55
2019,05,16,01,45,990.59
2019,05,16,01,46,990.55
2019,05,16,01,47,990.55
2019,05,16,01,48,990.52
2019,05,16,01,49,990.49
2019,05,16,01,50,990.49
2019,05,16,01,51,990.52
2019,05,16,01,52,990.55
2019,05,16,01,53,990.52
2019,05,16,01,54,990.52
2019,05,16,01,55,990.59
2019,05,16,01,56,990.59
2019,05,16,01,57,990.52
2019,05,16,01,58,990.52
2019,05,16,01,59,990.55
2019,05,16,02,00,990.49
2019,05,16,02,01,990.52
2019,05,16,02,02,990.49
2019,05,16,02,03,990.52
2019,05,16,02,04,990.55
2019,05,16,02,05,990.55
2019,05,16,02,06,990.55
2019,05,16,02,07,990.62
2019,05,16,02,08,990.62
2019,05,16,02,09,990.65
2019,05,16,02,10,990.62
2019,05,16,02,11,990.65
2019,05,16,02,12,990.62
2019,05,16,02,13,990.55
2019,05,16,02,14,990.52
2019,05,16,02,15,990.55
2019,05,16,02,16,990.52
2019,05,16,02,17,990.55
2019,05,16,02,18,990.49
2019,05,16,02,19,990.52
2019,05,16,02,20,990.45
2019,05,16,02,21,990.49
2019,05,16,02,22,990.45
2019,05,16,02,23,990.49
2019,05,16,02,24,990.49
2019,05,16,02,25,990.45
2019,05,16,02,26,990.45
2019,05,16,02,27,990.42
2019,05,16,02,28,990.38
2019,05,16,02,29,990.42
2019,05,16,02,30,990.42
2019,05,16,02,31,990.42
2019,05,16,02,32,990.42
2019,05,16,02,33,990.38
2019,05,16,02,34,990.42
2019,05,16,02,35,990.38
2019,05,16,02,36,990.35
2019,05,16,02,37,990.38
2019,05,16,02,38,990.35
2019,05,16,02,39,990.38
2019,05,16,02,40,990.35
2019,05,16,02,41,990.32
2019,05,16,02,42,990.35
2019,05,16,02,43,990.38
2019,05,16,02,44,990.35
2019,05,16,02,45,990.35
2019,05,16,02,46,990.35
2019,05,16,02,47,990.32
2019,05,16,02,48,990.35
2019,05,16,02,49,990.28
2019,05,16,02,50,990.35
2019,05,16,02,51,990.32
2019,05,16,02,52,990.35
2019,05,16,02,53,990.32
2019,05,16,02,54,990.35
2019,05,16,02,55,990.35
2019,05,16,02,56,990.28
2019,05,16,02,57,990.28
2019,05,16,02,58,990.28
2019,05,16,02,59,990.25
2019,05,16,03,00,990.25
2019,05,16,03,01,990.32
2019,05,16,03,02,990.28
2019,05,16,03,03,990.25
2019,05,16,03,04,990.28
2019,05,16,03,05,990.25
2019,05,16,03,06,990.25
2019,05,16,03,07,990.21
2019,05,16,03,08,990.21
2019,05,16,03,09,990.25
2019,05,16,03,10,990.21
2019,05,16,03,11,990.21
2019,05,16,03,12,990.15
2019,05,16,03,13,990.15
2019,05,16,03,14,990.15
2019,05,16,03,15,990.11
2019,05,16,03,16,990.15
2019,05,16,03,17,990.11
2019,05,16,03,18,990.11
2019,05,16,03,19,990.08
2019,05,16,03,20,990.04
2019,05,16,03,21,990.01
2019,05,16,03,22,990.01
2019,05,16,03,23,989.94
2019,05,16,03,24,989.98
2019,05,16,03,25,989.98
2019,05,16,03,26,989.91
2019,05,16,03,27,989.88
2019,05,16,03,28,989.91
2019,05,16,03,29,989.91
2019,05,16,03,30,989.88
2019,05,16,03,31,989.88
2019,05,16,03,32,989.81
2019,05,16,03,33,989.77
2019,05,16,03,34,989.81
2019,05,16,03,35,989.74
2019,05,16,03,36,989.74
2019,05,16,03,37,989.71
2019,05,16,03,38,989.74
2019,05,16,03,39,989.71
2019,05,16,03,40,989.71
2019,05,16,03,41,989.71
2019,05,16,03,42,989.74
2019,05,16,03,43,989.71
2019,05,16,03,44,989.74
2019,05,16,03,45,989.74
2019,05,16,03,46,989.71
2019,05,16,03,47,989.71
2019,05,16,03,48,989.71
2019,05,16,03,49,989.67
2019,05,16,03,50,989.67
2019,05,16,03,51,989.64
2019,05,16,03,52,989.71
2019,05,16,03,53,989.67
2019,05,16,03,54,989.67
2019,05,16,03,55,989.67
2019,05,16,03,56,989.60
2019,05,16,03,57,989.60
2019,05,16,03,58,989.60
2019,05,16,03,59,989.57
2019,05,16,04,00,989.57
2019,05,16,04,01,989.57
2019,05,16,04,02,989.54
2019,05,16,04,03,989.57
2019,05,16,04,04,989.54
2019,05,16,04,05,989.54
2019,05,16,04,06,989.57
2019,05,16,04,07,989.54
2019,05,16,04,08,989.54
2019,05,16,04,09,989.54
2019,05,16,04,10,989.54
2019,05,16,04,11,989.54
2019,05,16,04,12,989.57
2019,05,16,04,13,989.54
2019,05,16,04,14,989.54
2019,05,16,04,15,989.54
2019,05,16,04,16,989.50
2019,05,16,04,17,989.54
2019,05,16,04,18,989.54
2019,05,16,04,19,989.47
2019,05,16,04,20,989.47
2019,05,16,04,21,989.44
2019,05,16,04,22,989.47
2019,05,16,04,23,989.44
2019,05,16,04,24,989.44
2019,05,16,04,25,989.44
2019,05,16,04,26,989.44
2019,05,16,04,27,989.44
2019,05,16,04,28,989.44
2019,05,16,04,29,989.47
2019,05,16,04,30,989.44
2019,05,16,04,31,989.47
2019,05,16,04,32,989.40
2019,05,16,04,33,989.37
2019,05,16,04,34,989.37
2019,05,16,04,35,989.33
2019,05,16,04,36,989.27
2019,05,16,04,37,989.27
2019,05,16,04,38,989.23
2019,05,16,04,39,989.23
2019,05,16,04,40,989.23
2019,05,16,04,41,989.16
2019,05,16,04,42,989.16
2019,05,16,04,43,989.13
2019,05,16,04,44,989.13
2019,05,16,04,45,989.16
2019,05,16,04,46,989.20
2019,05,16,04,47,989.20
2019,05,16,04,48,989.16
2019,05,16,04,49,989.16
2019,05,16,04,50,989.16
2019,05,16,04,51,989.20
2019,05,16,04,52,989.20
2019,05,16,04,53,989.23
2019,05,16,04,54,989.23
2019,05,16,04,55,989.20
2019,05,16,04,56,989.23
2019,05,16,04,57,989.20
2019,05,16,04,58,989.20
2019,05,16,04,59,989.20
2019,05,16,05,00,989.23
2019,05,16,05,01,989.20
2019,05,16,05,02,989.20
2019,05,16,05,03,989.16
2019,05,16,05,04,989.20
2019,05,16,05,05,989.16
2019,05,16,05,06,989.23
2019,05,16,05,07,989.20
2019,05,16,05,08,989.20
2019,05,16,05,09,989.20
2019,05,16,05,10,989.20
2019,05,16,05,11,989.23
2019,05,16,05,12,989.23
2019,05,16,05,13,989.23
2019,05,16,05,14,989.23
2019,05,16,05,15,989.27
2019,05,16,05,16,989.23
2019,05,16,05,17,989.23
2019,05,16,05,18,989.23
2019,05,16,05,19,989.23
2019,05,16,05,20,989.20
2019,05,16,05,21,989.20
2019,05,16,05,22,989.20
2019,05,16,05,23,989.16
2019,05,16,05,24,989.13
2019,05,16,05,25,989.16
2019,05,16,05,26,989.13
2019,05,16,05,27,989.13
2019,05,16,05,28,989.16
2019,05,16,05,29,989.16
2019,05,16,05,30,989.16
2019,05,16,05,31,989.20
2019,05,16,05,32,989.20
2019,05,16,05,33,989.16
2019,05,16,05,34,989.20
2019,05,16,05,35,989.16
2019,05,16,05,36,989.20
2019,05,16,05,37,989.20
2019,05,16,05,38,989.23
2019,05,16,05,39,989.20
2019,05,16,05,40,989.23
2019,05,16,05,41,989.20
2019,05,16,05,42,989.23
2019,05,16,05,43,989.20
2019,05,16,05,44,989.20
2019,05,16,05,45,989.23
2019,05,16,05,46,989.23
2019,05,16,05,47,989.20
2019,05,16,05,48,989.20
2019,05,16,05,49,989.20
2019,05,16,05,50,989.20
2019,05,16,05,51,989.16
2019,05,16,05,52,989.13
2019,05,16,05,53,989.13
2019,05,16,05,54,989.10
2019,05,16,05,55,989.10
2019,05,16,05,56,989.10
2019,05,16,05,57,989.06
2019,05,16,05,58,989.06
2019,05,16,05,59,989.06
2019,05,16,06,00,989.03
2019,05,16,06,01,989.06
2019,05,16,06,02,989.06
2019,05,16,06,03,989.06
2019,05,16,06,04,989.10
2019,05,16,06,05,989.06
2019,05,16,06,06,989.03
2019,05,16,06,07,989.06
2019,05,16,06,08,989.06
2019,05,16,06,09,989.03
2019,05,16,06,10,989.03
2019,05,16,06,11,989.03
2019,05,16,06,12,989.06
2019,05,16,06,13,989.03
2019,05,16,06,14,989.03
2019,05,16,06,15,989.00
2019,05,16,06,16,989.03
2019,05,16,06,17,989.06
2019,05,16,06,18,989.03
2019,05,16,06,19,989.00
2019,05,16,06,20,989.06
2019,05,16,06,21,989.03
2019,05,16,06,22,989.00
2019,05,16,06,23,989.03
2019,05,16,06,24,989.00
2019,05,16,06,25,989.03
2019,05,16,06,26,989.06
2019,05,16,06,27,989.06
2019,05,16,06,28,989.06
2019,05,16,06,29,989.03
2019,05,16,06,30,989.03
2019,05,16,06,31,989.03
2019,05,16,06,32,989.03
2019,05,16,06,33,989.00
2019,05,16,06,34,989.06
2019,05,16,06,35,989.06
2019,05,16,06,36,989.03
2019,05,16,06,37,989.06
2019,05,16,06,38,989.10
2019,05,16,06,39,989.03
2019,05,16,06,40,989.00
2019,05,16,06,41,989.03
2019,05,16,06,42,989.03
2019,05,16,06,43,989.00
2019,05,16,06,44,989.00
2019,05,16,06,45,989.03
2019,05,16,06,46,989.03
2019,05,16,06,47,989.03
2019,05,16,06,48,989.06
2019,05,16,06,49,989.06
2019,05,16,06,50,989.00
2019,05,16,06,51,989.00
2019,05,16,06,52,988.96
2019,05,16,06,53,988.96
2019,05,16,06,54,988.93
2019,05,16,06,55,988.93
2019,05,16,06,56,988.89
2019,05,16,06,57,988.93
2019,05,16,06,58,988.93
2019,05,16,06,59,988.93
2019,05,16,07,00,988.93
2019,05,16,07,01,988.93
2019,05,16,07,02,988.93
2019,05,16,07,03,988.89
2019,05,16,07,04,988.89
2019,05,16,07,05,988.86
2019,05,16,07,06,988.86
2019,05,16,07,07,988.83
2019,05,16,07,08,988.79
2019,05,16,07,09,988.89
2019,05,16,07,10,988.86
2019,05,16,07,11,988.83
2019,05,16,07,12,988.83
2019,05,16,07,13,988.79
2019,05,16,07,14,988.79
2019,05,16,07,15,988.76
2019,05,16,07,16,988.79
2019,05,16,07,17,988.79
2019,05,16,07,18,988.79
2019,05,16,07,19,988.79
2019,05,16,07,20,988.79
2019,05,16,07,21,988.79
2019,05,16,07,22,988.79
2019,05,16,07,23,988.79
2019,05,16,07,24,988.76
2019,05,16,07,25,988.76
2019,05,16,07,26,988.76
2019,05,16,07,27,988.76
2019,05,16,07,28,988.72
2019,05,16,07,29,988.72
2019,05,16,07,30,988.72
2019,05,16,07,31,988.72
2019,05,16,07,32,988.72
2019,05,16,07,33,988.72
2019,05,16,07,34,988.76
2019,05,16,07,35,988.76
2019,05,16,07,36,988.76
2019,05,16,07,37,988.76
2019,05,16,07,38,988.76
2019,05,16,07,39,988.76
2019,05,16,07,40,988.79
2019,05,16,07,41,988.83
2019,05,16,07,42,988.79
2019,05,16,07,43,988.86
2019,05,16,07,44,988.79
2019,05,16,07,45,988.76
2019,05,16,07,46,988.79
2019,05,16,07,47,988.76
2019,05,16,07,48,988.79
2019,05,16,07,49,988.83
2019,05,16,07,50,988.86
2019,05,16,07,51,988.86
2019,05,16,07,52,988.89
2019,05,16,07,53,988.86
2019,05,16,07,54,988.89
2019,05,16,07,55,988.86
2019,05,16,07,56,988.89
2019,05,16,07,57,988.89
2019,05,16,07,58,988.86
2019,05,16,07,59,988.86
2019,05,16,08,00,988.89
2019,05,16,08,01,988.79
2019,05,16,08,02,988.79
2019,05,16,08,03,988.86
2019,05,16,08,04,988.86
2019,05,16,08,05,988.83
2019,05,16,08,06,988.79
2019,05,16,08,07,988.79
2019,05,16,08,08,988.79
2019,05,16,08,09,988.79
2019,05,16,08,10,988.79
2019,05,16,08,11,988.76
2019,05,16,08,12,988.79
2019,05,16,08,13,988.79
2019,05,16,08,14,988.79
2019,05,16,08,15,988.79
2019,05,16,08,16,988.79
2019,05,16,08,17,988.76
2019,05,16,08,18,988.79
2019,05,16,08,19,988.83
2019,05,16,08,20,988.83
2019,05,16,08,21,988.86
2019,05,16,08,22,988.86
2019,05,16,08,23,988.89
2019,05,16,08,24,988.89
2019,05,16,08,25,988.93
2019,05,16,08,26,988.93
2019,05,16,08,27,988.96
2019,05,16,08,28,988.89
2019,05,16,08,29,988.96
2019,05,16,08,30,988.93
2019,05,16,08,31,988.89
2019,05,16,08,32,988.89
2019,05,16,08,33,988.93
2019,05,16,08,34,988.89
2019,05,16,08,35,988.89
2019,05,16,08,36,988.93
2019,05,16,08,37,988.89
2019,05,16,08,38,988.86
2019,05,16,08,39,988.89
2019,05,16,08,40,988.93
2019,05,16,08,41,988.96
2019,05,16,08,42,988.96
2019,05,16,08,43,988.96
2019,05,16,08,44,988.96
2019,05,16,08,45,988.96
2019,05,16,08,46,988.96
2019,05,16,08,47,988.96
2019,05,16,08,48,988.96
2019,05,16,08,49,988.93
2019,05,16,08,50,988.96
2019,05,16,08,51,988.96
2019,05,16,08,52,988.93
2019,05,16,08,53,988.93
2019,05,16,08,54,988.93
2019,05,16,08,55,988.96
2019,05,16,08,56,988.96
2019,05,16,08,57,989.03
2019,05,16,08,58,989.00
2019,05,16,08,59,988.96
2019,05,16,09,00,988.96
2019,05,16,09,01,989.00
2019,05,16,09,02,988.96
2019,05,16,09,03,988.96
2019,05,16,09,04,988.93
2019,05,16,09,05,988.89
2019,05,16,09,06,988.93
2019,05,16,09,07,988.96
2019,05,16,09,08,988.93
2019,05,16,09,09,988.93
2019,05,16,09,10,988.96
2019,05,16,09,11,988.96
2019,05,16,09,12,989.00
2019,05,16,09,13,989.00
2019,05,16,09,14,989.03
2019,05,16,09,15,989.03
2019,05,16,09,16,989.03
2019,05,16,09,17,989.06
2019,05,16,09,18,989.06
2019,05,16,09,19,989.06
2019,05,16,09,20,989.06
2019,05,16,09,21,989.06
2019,05,16,09,22,989.06
2019,05,16,09,23,989.03
2019,05,16,09,24,989.03
2019,05,16,09,25,989.03
2019,05,16,09,26,989.03
2019,05,16,09,27,989.00
2019,05,16,09,28,988.96
2019,05,16,09,29,989.00
2019,05,16,09,30,989.00
2019,05,16,09,31,988.96
2019,05,16,09,32,989.00
2019,05,16,09,33,988.96
2019,05,16,09,34,988.96
2019,05,16,09,35,989.00
2019,05,16,09,36,988.96
2019,05,16,09,37,989.03
2019,05,16,09,38,989.03
2019,05,16,09,39,989.00
2019,05,16,09,40,989.03
2019,05,16,09,41,989.06
2019,05,16,09,42,989.10
2019,05,16,09,43,989.03
2019,05,16,09,44,989.06
2019,05,16,09,45,989.03
2019,05,16,09,46,989.00
2019,05,16,09,47,989.00
2019,05,16,09,48,989.00
2019,05,16,09,49,988.96
2019,05,16,09,50,989.03
2019,05,16,09,51,989.00
2019,05,16,09,52,989.03
2019,05,16,09,53,989.00
2019,05,16,09,54,989.03
2019,05,16,09,55,989.00
2019,05,16,09,56,989.00
2019,05,16,09,57,989.06
2019,05,16,09,58,989.03
2019,05,16,09,59,989.06
2019,05,16,10,00,989.03
2019,05,16,10,01,989.03
2019,05,16,10,02,989.03
2019,05,16,10,03,989.06
2019,05,16,10,04,989.06
2019,05,16,10,05,989.10
2019,05,16,10,06,989.06
2019,05,16,10,07,989.06
2019,05,16,10,08,989.10
2019,05,16,10,09,989.03
2019,05,16,10,10,989.03
2019,05,16,10,11,989.06
2019,05,16,10,12,989.13
2019,05,16,10,13,989.13
2019,05,16,10,14,989.13
2019,05,16,10,15,989.10
2019,05,16,10,16,989.16
2019,05,16,10,17,989.10
2019,05,16,10,18,989.10
2019,05,16,10,19,989.20
2019,05,16,10,20,989.13
2019,05,16,10,21,989.16
2019,05,16,10,22,989.20
2019,05,16,10,23,989.16
2019,05,16,10,24,989.16
2019,05,16,10,25,989.20
2019,05,16,10,26,989.16
2019,05,16,10,27,989.16
2019,05,16,10,28,989.20
2019,05,16,10,29,989.16
2019,05,16,10,30,989.13
2019,05,16,10,31,989.13
2019,05,16,10,32,989.13
2019,05,16,10,33,989.16
2019,05,16,10,34,989.13
2019,05,16,10,35,989.16
2019,05,16,10,36,989.20
2019,05,16,10,37,989.16
2019,05,16,10,38,989.20
2019,05,16,10,39,989.16
2019,05,16,10,40,989.20
2019,05,16,10,41,989.20
2019,05,16,10,42,989.20
2019,05,16,10,43,989.20
2019,05,16,10,44,989.20
2019,05,16,10,45,989.20
2019,05,16,10,46,989.20
2019,05,16,10,47,989.16
2019,05,16,10,48,989.16
2019,05,16,10,49,989.13
2019,05,16,10,50,989.16
2019,05,16,10,51,989.10
2019,05,16,10,52,989.10
2019,05,16,10,53,989.10
2019,05,16,10,54,989.10
2019,05,16,10,55,989.10
2019,05,16,10,56,989.06
2019,05,16,10,57,989.06
2019,05,16,10,58,989.10
2019,05,16,10,59,989.10
2019,05,16,11,00,989.03
2019,05,16,11,01,989.03
2019,05,16,11,02,989.10
2019,05,16,11,03,989.06
2019,05,16,11,04,989.06
2019,05,16,11,05,989.06
2019,05,16,11,06,989.06
2019,05,16,11,07,989.10
2019,05,16,11,08,989.10
2019,05,16,11,09,989.13
2019,05,16,11,10,989.07
2019,05,16,11,11,989.10
2019,05,16,11,12,989.13
2019,05,16,11,13,989.13
2019,05,16,11,14,989.10
2019,05,16,11,15,989.13
2019,05,16,11,16,989.10
2019,05,16,11,17,989.13
2019,05,16,11,18,989.10
2019,05,16,11,19,989.06
2019,05,16,11,20,989.10
2019,05,16,11,21,989.10
2019,05,16,11,22,989.06
2019,05,16,11,23,989.06
2019,05,16,11,24,989.06
2019,05,16,11,25,989.06
2019,05,16,11,26,989.10
2019,05,16,11,27,989.10
2019,05,16,11,28,989.10
2019,05,16,11,29,989.06
2019,05,16,11,30,989.03
2019,05,16,11,31,989.03
2019,05,16,11,32,989.06
2019,05,16,11,33,989.06
2019,05,16,11,34,989.10
2019,05,16,11,35,989.06
2019,05,16,11,36,989.03
2019,05,16,11,37,989.06
2019,05,16,11,38,989.03
2019,05,16,11,39,989.06
2019,05,16,11,40,989.00
2019,05,16,11,41,989.03
2019,05,16,11,42,989.00
2019,05,16,11,43,989.06
2019,05,16,11,44,989.03
2019,05,16,11,45,989.03
2019,05,16,11,46,989.00
2019,05,16,11,47,989.00
2019,05,16,11,48,988.96
2019,05,16,11,49,988.96
2019,05,16,11,50,988.96
2019,05,16,11,51,988.96
2019,05,16,11,52,988.93
2019,05,16,11,53,988.96
2019,05,16,11,54,989.00
2019,05,16,11,55,989.03
2019,05,16,11,56,988.96
2019,05,16,11,57,988.96
2019,05,16,11,58,988.93
2019,05,16,11,59,988.96
2019,05,16,12,00,988.93
2019,05,16,12,01,988.89
2019,05,16,12,02,988.86
2019,05,16,12,03,988.86
2019,05,16,12,04,988.86
2019,05,16,12,05,988.86
2019,05,16,12,06,988.86
2019,05,16,12,07,988.86
2019,05,16,12,08,988.86
2019,05,16,12,09,988.86
2019,05,16,12,10,988.83
2019,05,16,12,11,988.86
2019,05,16,12,12,988.86
2019,05,16,12,13,988.83
2019,05,16,12,14,988.86
2019,05,16,12,15,988.86
2019,05,16,12,16,988.83
2019,05,16,12,17,988.83
2019,05,16,12,18,988.83
2019,05,16,12,19,988.83
2019,05,16,12,20,988.79
2019,05,16,12,21,988.79
2019,05,16,12,22,988.79
2019,05,16,12,23,988.83
2019,05,16,12,24,988.86
2019,05,16,12,25,988.83
2019,05,16,12,26,988.79
2019,05,16,12,27,988.79
2019,05,16,12,28,988.76
2019,05,16,12,29,988.76
2019,05,16,12,30,988.76
2019,05,16,12,31,988.72
2019,05,16,12,32,988.76
2019,05,16,12,33,988.76
2019,05,16,12,34,988.76
2019,05,16,12,35,988.76
2019,05,16,12,36,988.79
2019,05,16,12,37,988.76
2019,05,16,12,38,988.76
2019,05,16,12,39,988.79
2019,05,16,12,40,988.76
2019,05,16,12,41,988.76
2019,05,16,12,42,988.76
2019,05,16,12,43,988.76
2019,05,16,12,44,988.72
2019,05,16,12,45,988.66
2019,05,16,12,46,988.66
2019,05,16,12,47,988.66
2019,05,16,12,48,988.69
2019,05,16,12,49,988.69
2019,05,16,12,50,988.69
2019,05,16,12,51,988.69
2019,05,16,12,52,988.72
2019,05,16,12,53,988.69
2019,05,16,12,54,988.66
2019,05,16,12,55,988.62
2019,05,16,12,56,988.66
2019,05,16,12,57,988.62
2019,05,16,12,58,988.66
2019,05,16,12,59,988.62
2019,05,16,13,00,988.62
2019,05,16,13,01,988.59
2019,05,16,13,02,988.55
2019,05,16,13,03,988.55
2019,05,16,13,04,988.52
2019,05,16,13,05,988.52
2019,05,16,13,06,988.52
2019,05,16,13,07,988.52
2019,05,16,13,08,988.52
2019,05,16,13,09,988.55
2019,05,16,13,10,988.52
2019,05,16,13,11,988.52
2019,05,16,13,12,988.52
2019,05,16,13,13,988.55
2019,05,16,13,14,988.52
2019,05,16,13,15,988.52
2019,05,16,13,16,988.52
2019,05,16,13,17,988.49
2019,05,16,13,18,988.45
2019,05,16,13,19,988.45
2019,05,16,13,20,988.45
2019,05,16,13,21,988.45
2019,05,16,13,22,988.45
2019,05,16,13,23,988.42
2019,05,16,13,24,988.42
2019,05,16,13,25,988.42
2019,05,16,13,26,988.42
2019,05,16,13,27,988.45
2019,05,16,13,28,988.45
2019,05,16,13,29,988.39
2019,05,16,13,30,988.45
2019,05,16,13,31,988.42
2019,05,16,13,32,988.39
2019,05,16,13,33,988.39
2019,05,16,13,34,988.39
2019,05,16,13,35,988.42
2019,05,16,13,36,988.42
2019,05,16,13,37,988.42
2019,05,16,13,38,988.45
2019,05,16,13,39,988.42
2019,05,16,13,40,988.45
2019,05,16,13,41,988.45
2019,05,16,13,42,988.45
2019,05,16,13,43,988.42
2019,05,16,13,44,988.45
2019,05,16,13,45,988.39
2019,05,16,13,46,988.42
2019,05,16,13,47,988.39
2019,05,16,13,48,988.42
2019,05,16,13,49,988.42
2019,05,16,13,50,988.35
2019,05,16,13,51,988.45
2019,05,16,13,52,988.39
2019,05,16,13,53,988.45
2019,05,16,13,54,988.42
2019,05,16,13,55,988.42
2019,05,16,13,56,988.42
2019,05,16,13,57,988.45
2019,05,16,13,58,988.49
2019,05,16,13,59,988.45
2019,05,16,14,00,988.52
2019,05,16,14,01,988.55
2019,05,16,14,02,988.55
2019,05,16,14,03,988.52
2019,05,16,14,04,988.52
2019,05,16,14,05,988.55
2019,05,16,14,06,988.55
2019,05,16,14,07,988.52
2019,05,16,14,08,988.52
2019,05,16,14,09,988.49
2019,05,16,14,10,988.45
2019,05,16,14,11,988.45
2019,05,16,14,12,988.42
2019,05,16,14,13,988.42
2019,05,16,14,14,988.42
2019,05,16,14,15,988.45
2019,05,16,14,16,988.45
2019,05,16,14,17,988.42
2019,05,16,14,18,988.49
2019,05,16,14,19,988.45
2019,05,16,14,20,988.49
2019,05,16,14,21,988.52
2019,05,16,14,22,988.52
2019,05,16,14,23,988.55
2019,05,16,14,24,988.45
2019,05,16,14,25,988.49
2019,05,16,14,26,988.52
2019,05,16,14,27,988.49
2019,05,16,14,28,988.42
2019,05,16,14,29,988.42
2019,05,16,14,30,988.39
2019,05,16,14,31,988.39
2019,05,16,14,32,988.39
2019,05,16,14,33,988.45
2019,05,16,14,34,988.39
2019,05,16,14,35,988.45
2019,05,16,14,36,988.42
2019,05,16,14,37,988.42
2019,05,16,14,38,988.49
2019,05,16,14,39,988.49
2019,05,16,14,40,988.52
2019,05,16,14,41,988.52
2019,05,16,14,42,988.55
2019,05,16,14,43,988.52
2019,05,16,14,44,988.52
2019,05,16,14,45,988.55
2019,05,16,14,46,988.55
2019,05,16,14,47,988.52
2019,05,16,14,48,988.52
2019,05,16,14,49,988.55
2019,05,16,14,50,988.52
2019,05,16,14,51,988.55
2019,05,16,14,52,988.52
2019,05,16,14,53,988.52
2019,05,16,14,54,988.52
2019,05,16,14,55,988.55
2019,05,16,14,56,988.55
2019,05,16,14,57,988.59
2019,05,16,14,58,988.55
2019,05,16,14,59,988.62
2019,05,16,15,00,988.59
2019,05,16,15,01,988.66
2019,05,16,15,02,988.59
2019,05,16,15,03,988.59
2019,05,16,15,04,988.62
2019,05,16,15,05,988.62
2019,05,16,15,06,988.62
2019,05,16,15,07,988.62
2019,05,16,15,08,988.59
2019,05,16,15,09,988.66
2019,05,16,15,10,988.59
2019,05,16,15,11,988.62
2019,05,16,15,12,988.62
2019,05,16,15,13,988.59
2019,05,16,15,14,988.59
2019,05,16,15,15,988.55
2019,05,16,15,16,988.52
2019,05,16,15,17,988.49
2019,05,16,15,18,988.49
2019,05,16,15,19,988.45
2019,05,16,15,20,988.49
2019,05,16,15,21,988.49
2019,05,16,15,22,988.49
2019,05,16,15,23,988.49
2019,05,16,15,24,988.52
2019,05,16,15,25,988.49
2019,05,16,15,26,988.49
2019,05,16,15,27,988.52
2019,05,16,15,28,988.49
2019,05,16,15,29,988.52
2019,05,16,15,30,988.49
2019,05,16,15,31,988.52
2019,05,16,15,32,988.52
2019,05,16,15,33,988.55
2019,05,16,15,34,988.55
2019,05,16,15,35,988.55
2019,05,16,15,36,988.55
2019,05,16,15,37,988.55
2019,05,16,15,38,988.59
2019,05,16,15,39,988.55
2019,05,16,15,40,988.55
2019,05,16,15,41,988.55
2019,05,16,15,42,988.52
2019,05,16,15,43,988.52
2019,05,16,15,44,988.55
2019,05,16,15,45,988.52
2019,05,16,15,46,988.52
2019,05,16,15,47,988.55
2019,05,16,15,48,988.55
2019,05,16,15,49,988.52
2019,05,16,15,50,988.52
2019,05,16,15,51,988.52
2019,05,16,15,52,988.49
2019,05,16,15,53,988.49
2019,05,16,15,54,988.52
2019,05,16,15,55,988.49
2019,05,16,15,56,988.52
2019,05,16,15,57,988.45
2019,05,16,15,58,988.52
2019,05,16,15,59,988.52
2019,05,16,16,00,988.49
2019,05,16,16,01,988.49
2019,05,16,16,02,988.52
2019,05,16,16,03,988.49
2019,05,16,16,04,988.52
2019,05,16,16,05,988.49
2019,05,16,16,06,988.49
2019,05,16,16,07,988.49
2019,05,16,16,08,988.49
2019,05,16,16,09,988.49
2019,05,16,16,10,988.45
2019,05,16,16,11,988.49
2019,05,16,16,12,988.45
2019,05,16,16,13,988.42
2019,05,16,16,14,988.42
2019,05,16,16,15,988.42
2019,05,16,16,16,988.42
2019,05,16,16,17,988.42
2019,05,16,16,18,988.35
2019,05,16,16,19,988.39
2019,05,16,16,20,988.35
2019,05,16,16,21,988.39
2019,05,16,16,22,988.35
2019,05,16,16,23,988.39
2019,05,16,16,24,988.39
2019,05,16,16,25,988.35
2019,05,16,16,26,988.39
2019,05,16,16,27,988.35
2019,05,16,16,28,988.35
2019,05,16,16,29,988.39
2019,05,16,16,30,988.42
2019,05,16,16,31,988.42
2019,05,16,16,32,988.42
2019,05,16,16,33,988.42
2019,05,16,16,34,988.39
2019,05,16,16,35,988.39
2019,05,16,16,36,988.42